Weather History for Athens, OH

Change the Weather History Date:

Sunday, October 27, 2013

  Actual Average (KPKB) Record (KPKB)
Temperature  
Mean Temperature 44 °F 52 °F  
Max Temperature 56 °F 63 °F 84 °F (1984)
Min Temperature 32 °F 41 °F 21 °F (1962)
Degree Days  
Heating Degree Days 21 13  
Cooling Degree Days 0 0  
Moisture  
Dew Point 33 °F    
Average Humidity 74    
Maximum Humidity 98    
Minimum Humidity 39    
Precipitation  
Precipitation 0.00 in 0.10 in 0.81 in (2011)
Sea Level Pressure  
Sea Level Pressure 30.07 in    
Wind  
Wind Speed 1 mph (WSW)    
Max Wind Speed 8 mph    
Max Gust Speed -    
Visibility 10 miles    
Events Snow    
T = Trace of Precipitation, MM = Missing Value Source: NWS Daily Summary

Daily Weather History Graph

Daily Weather History Graph

Search for Another Location

Airport:

Trip Planner

Search our weather history database for the weather conditions in past years. The results will help you decide how hot, cold, wet, or windy it might be!

Date:

Astronomy

Oct. 27, 2013 Rise Set
Actual Time 7:51 AM EDT 6:33 PM EDT
Civil Twilight 7:23 AM EDT 7:00 PM EDT
Nautical Twilight 6:52 AM EDT 7:32 PM EDT
Astronomical Twilight 6:21 AM EDT 8:03 PM EDT
Moon 12:50 AM EDT (10/27) 2:39 PM EDT (10/27)
Length of Visible Light 11h 37m
Length of Day
10h 42m
Last Quarter, 44% of the Moon is Illuminated
Oct 27
Last Quarter
Nov 3
New
Nov 10
First Quarter
Nov 17
Full
Nov 25
Last Quarter

Hourly Weather History & Observations

Time (EDT) Temp. Windchill Dew Point Humidity Pressure Visibility Wind Dir Wind Speed Gust Speed Precip Events Conditions
12:15 AM 45.0 °F 43.5 °F 30.2 °F 56% 30.04 in 10.0 mi SSW 3.5 mph - N/A   Scattered Clouds
12:35 AM 42.8 °F - 30.9 °F 63% 30.04 in 10.0 mi Calm Calm - N/A   Mostly Cloudy
12:55 AM 42.1 °F - 31.6 °F 67% 30.04 in 10.0 mi Calm Calm - N/A   Overcast
1:15 AM 41.5 °F - 31.8 °F 68% 30.04 in 10.0 mi Calm Calm - N/A   Overcast
1:35 AM 41.0 °F - 32.0 °F 70% 30.04 in 10.0 mi Calm Calm - N/A   Overcast
1:55 AM 41.0 °F - 32.0 °F 70% 30.04 in 10.0 mi Calm Calm - N/A   Overcast
2:15 AM 40.1 °F - 32.9 °F 75% 30.04 in 10.0 mi Calm Calm - N/A   Mostly Cloudy
2:35 AM 37.6 °F - 32.4 °F 81% 30.04 in 10.0 mi Calm Calm - N/A   Scattered Clouds
2:55 AM 36.7 °F - 33.3 °F 87% 30.03 in 10.0 mi Calm Calm - N/A   Scattered Clouds
3:15 AM 35.6 °F - 32.2 °F 87% 30.04 in 10.0 mi Calm Calm - N/A   Clear
3:35 AM 34.9 °F - 32.0 °F 89% 30.04 in 10.0 mi Calm Calm - N/A   Clear
3:55 AM 34.7 °F - 32.0 °F 90% 30.04 in 10.0 mi Calm Calm - N/A   Clear
4:15 AM 34.0 °F - 32.0 °F 92% 30.03 in 10.0 mi Calm Calm - N/A   Clear
4:35 AM 33.3 °F - 31.5 °F 93% 30.03 in 10.0 mi Calm Calm - N/A   Clear
4:55 AM 33.3 °F - 31.8 °F 94% 30.03 in 10.0 mi Calm Calm - N/A   Clear
5:15 AM 32.9 °F - 31.8 °F 96% 30.04 in 10.0 mi Calm Calm - N/A   Clear
5:35 AM 32.2 °F - 30.9 °F 95% 30.04 in 10.0 mi Calm Calm - N/A   Clear
5:55 AM 32.5 °F - 31.6 °F 96% 30.05 in 10.0 mi Calm Calm - N/A   Clear
6:15 AM 32.5 °F - 31.6 °F 96% 30.05 in 10.0 mi Calm Calm - N/A   Clear
6:35 AM 32.7 °F - 31.8 °F 96% 30.05 in 10.0 mi Calm Calm - N/A   Clear
6:55 AM 32.0 °F - 30.9 °F 96% 30.06 in 10.0 mi Calm Calm - N/A   Clear
7:15 AM 32.0 °F - 31.1 °F 96% 30.07 in 10.0 mi Calm Calm - N/A   Clear
7:35 AM 32.2 °F - 31.3 °F 96% 30.07 in 10.0 mi Calm Calm - N/A   Clear
7:55 AM 32.0 °F - 31.1 °F 96% 30.08 in 10.0 mi Calm Calm - N/A   Clear
8:15 AM 32.0 °F - 30.7 °F 95% 30.09 in 10.0 mi Calm Calm - N/A   Clear
8:35 AM 32.2 °F - 31.6 °F 98% 30.10 in 10.0 mi Calm Calm - N/A   Clear
8:55 AM 33.8 °F - 32.2 °F 94% 30.11 in 10.0 mi Calm Calm - N/A   Clear
9:15 AM 35.4 °F - 33.8 °F 94% 30.11 in 10.0 mi Calm Calm - N/A   Clear
9:35 AM 38.3 °F - 35.6 °F 90% 30.11 in 10.0 mi Calm Calm - N/A   Clear
9:55 AM 41.9 °F - 36.0 °F 79% 30.11 in 10.0 mi Calm Calm - N/A   Clear
10:15 AM 44.2 °F - 36.5 °F 74% 30.12 in 10.0 mi Calm Calm - N/A   Clear
10:35 AM 45.9 °F - 36.7 °F 70% 30.11 in 10.0 mi Calm Calm - N/A   Clear
10:55 AM 47.5 °F - 36.1 °F 65% 30.11 in 10.0 mi Calm Calm - N/A   Clear
11:15 AM 48.4 °F - 35.6 °F 61% 30.11 in 10.0 mi Calm Calm - N/A   Clear
11:35 AM 50.2 °F - 32.7 °F 51% 30.11 in 10.0 mi Calm Calm - N/A   Clear
11:55 AM 51.8 °F - 33.6 °F 50% 30.11 in 10.0 mi WSW 3.5 mph - N/A   Clear
12:15 PM 51.8 °F - 31.5 °F 46% 30.11 in 10.0 mi Calm Calm - N/A   Clear
12:35 PM 51.8 °F - 32.4 °F 48% 30.11 in 10.0 mi Calm Calm - N/A   Clear
12:55 PM 52.9 °F - 33.1 °F 47% 30.10 in 10.0 mi NW 3.5 mph - N/A   Scattered Clouds
1:15 PM 53.8 °F - 32.9 °F 45% 30.09 in 10.0 mi West 3.5 mph - N/A   Scattered Clouds
1:35 PM 55.2 °F - 33.4 °F 44% 30.09 in 10.0 mi Calm Calm - N/A   Clear
1:55 PM 55.2 °F - 31.8 °F 41% 30.08 in 7.0 mi West 6.9 mph - N/A   Scattered Clouds
2:15 PM 55.2 °F - 31.5 °F 40% 30.08 in 10.0 mi SSW 4.6 mph - N/A   Mostly Cloudy
2:35 PM 55.8 °F - 31.6 °F 40% 30.07 in 10.0 mi WSW 3.5 mph - N/A   Scattered Clouds
2:55 PM 56.3 °F - 31.6 °F 39% 30.07 in 10.0 mi West 5.8 mph - N/A   Clear
3:15 PM 56.3 °F - 32.0 °F 40% 30.07 in 10.0 mi WSW 8.1 mph - N/A   Clear
3:35 PM 56.3 °F - 31.8 °F 39% 30.06 in 10.0 mi WSW 4.6 mph - N/A   Clear
3:55 PM 56.7 °F - 32.4 °F 40% 30.06 in 10.0 mi SW 6.9 mph - N/A   Clear
6:15 PM 52.7 °F - 33.4 °F 48% 30.06 in 10.0 mi WSW 3.5 mph - N/A   Clear
6:35 PM 48.2 °F - 35.1 °F 60% 30.06 in 10.0 mi Calm Calm - N/A   Clear
6:55 PM 47.3 °F - 34.7 °F 62% 30.06 in 10.0 mi Calm Calm - N/A   Clear
7:15 PM 45.5 °F - 34.9 °F 66% 30.06 in 10.0 mi Calm Calm - N/A   Clear
7:35 PM 43.5 °F - 36.0 °F 75% 30.07 in 10.0 mi Calm Calm - N/A   Clear
7:55 PM 42.6 °F - 34.9 °F 74% 30.07 in 10.0 mi Calm Calm - N/A   Clear
8:15 PM 40.3 °F - 34.0 °F 78% 30.08 in 7.0 mi Calm Calm - N/A   Unknown
8:35 PM 40.1 °F - 34.3 °F 80% 30.08 in 10.0 mi Calm Calm - N/A   Unknown
8:55 PM 38.3 °F - 34.3 °F 86% 30.08 in 10.0 mi Calm Calm - N/A   Clear
9:15 PM 38.5 °F - 34.7 °F 86% 30.08 in 10.0 mi Calm Calm - N/A   Clear
9:35 PM 37.4 °F - 33.3 °F 85% 30.09 in 10.0 mi Calm Calm - N/A   Clear
9:55 PM 36.5 °F - 33.1 °F 87% 30.09 in 10.0 mi Calm Calm - N/A Snow Light Snow
10:15 PM 36.3 °F - 33.4 °F 89% 30.09 in 10.0 mi Calm Calm - N/A   Clear
10:35 PM 35.6 °F - 33.1 °F 91% 30.10 in 10.0 mi Calm Calm - N/A   Clear
10:55 PM 35.6 °F - 33.4 °F 92% 30.10 in 10.0 mi Calm Calm - N/A   Clear
11:15 PM 35.1 °F - 32.9 °F 92% 30.11 in 10.0 mi Calm Calm - N/A   Clear
11:35 PM 34.5 °F - 32.7 °F 93% 30.10 in 10.0 mi Calm Calm - N/A   Clear
11:55 PM 34.5 °F - 32.7 °F 93% 30.11 in 10.0 mi Calm Calm - N/A   Clear